Ardmore Downtown, OK

8:08 AM CST on November 20, 2019 (GMT -0600)
Ardmore Downtown

Weather History for K1F0 - October, 2019

Change the Weather History Date:

Sunday, October 13, 2019

  Actual Average (KADM) Record (KADM)
Temperature  
Mean Temperature 59 °F -  
Max Temperature 77 °F 74 °F 91 °F (1999)
Min Temperature 41 °F 53 °F 35 °F (2006)
Degree Days  
Heating Degree Days 6    
Growing Degree Days 9 (Base 50)    
Moisture  
Dew Point 41 °F    
Average Humidity 67    
Maximum Humidity 93    
Minimum Humidity 29    
Precipitation  
Precipitation 0.00 in - - ()
Sea Level Pressure  
Sea Level Pressure 29.99 in    
Wind  
Wind Speed 1 mph (SE)    
Max Wind Speed 9 mph    
Max Gust Speed -    
Visibility 10 miles    
Events      
Averages and records for this station are not official NWS values.
T = Trace of Precipitation, MM = Missing Value Source: NWS Daily Summary

Daily Weather History Graph

Daily Weather History Graph

Search for Another Location

Airport or City:

Astronomy

Oct. 13, 2019 Rise Set
Actual Time 7:31 AM CDT 6:56 PM CDT
Civil Twilight 7:06 AM CDT 7:22 PM CDT
Nautical Twilight 6:37 AM CDT 7:51 PM CDT
Astronomical Twilight 6:08 AM CDT 8:20 PM CDT
Moon 7:17 PM CDT (10/13) 7:10 AM CDT (10/13)
Length of Visible Light 12h 15m
Length of Day
11h 25m
Full, 100% of the Moon is Illuminated
Oct 13
Full
Oct 13
Full
Oct 21
Last Quarter
Oct 27
New
Nov 4
First Quarter

Hourly Weather History & Observations

Time (CDT) Temp. Dew Point Humidity Pressure Visibility Wind Dir Wind Speed Gust Speed Precip Events Conditions
12:10 AM 42.8 °F 35.6 °F 76% 30.03 in 10.0 mi Calm Calm - N/A   Clear
12:30 AM 42.8 °F 37.4 °F 81% 30.03 in 10.0 mi Calm Calm - N/A   Clear
12:50 AM 44.6 °F 35.6 °F 71% 30.03 in 10.0 mi Calm Calm - N/A   Clear
1:10 AM 44.6 °F 35.6 °F 71% 30.03 in 10.0 mi Calm Calm - N/A   Clear
1:30 AM 42.8 °F 33.8 °F 70% 30.03 in 10.0 mi Calm Calm - N/A   Clear
1:50 AM 46.4 °F 32.0 °F 57% 30.03 in 10.0 mi Calm Calm - N/A   Clear
2:10 AM 44.6 °F 33.8 °F 66% 30.03 in 10.0 mi Calm Calm - N/A   Clear
2:30 AM 42.8 °F 35.6 °F 76% 30.03 in 10.0 mi Calm Calm - N/A   Clear
2:50 AM 42.8 °F 37.4 °F 81% 30.03 in 10.0 mi Calm Calm - N/A   Clear
3:10 AM 42.8 °F 37.4 °F 81% 30.03 in 10.0 mi Calm Calm - N/A   Clear
3:30 AM 41.0 °F 37.4 °F 87% 30.02 in 10.0 mi Calm Calm - N/A   Clear
3:50 AM 42.8 °F 37.4 °F 81% 30.02 in 10.0 mi Calm Calm - N/A   Clear
4:10 AM 42.8 °F 35.6 °F 76% 30.02 in 10.0 mi Calm Calm - N/A   Clear
4:30 AM 41.0 °F 37.4 °F 87% 30.02 in 10.0 mi Calm Calm - N/A   Clear
4:50 AM 42.8 °F 37.4 °F 81% 30.02 in 10.0 mi Calm Calm - N/A   Clear
5:10 AM 42.8 °F 37.4 °F 81% 30.02 in 10.0 mi Calm Calm - N/A   Scattered Clouds
5:30 AM 41.0 °F 37.4 °F 87% 30.03 in 10.0 mi Calm Calm - N/A   Clear
5:50 AM 41.0 °F 37.4 °F 87% 30.02 in 10.0 mi Calm Calm - N/A   Clear
6:10 AM 41.0 °F 37.4 °F 87% 30.02 in 10.0 mi Calm Calm - N/A   Clear
6:30 AM 41.0 °F 37.4 °F 87% 30.02 in 10.0 mi Calm Calm - N/A   Clear
6:50 AM 41.0 °F 37.4 °F 87% 30.02 in 10.0 mi Calm Calm - N/A   Clear
7:10 AM 41.0 °F 37.4 °F 87% 30.02 in 10.0 mi Calm Calm - N/A   Clear
7:30 AM 41.0 °F 39.2 °F 93% 30.02 in 10.0 mi Calm Calm - N/A   Clear
7:50 AM 41.0 °F 39.2 °F 93% 30.02 in 10.0 mi Calm Calm - N/A   Clear
8:10 AM 44.6 °F 41.0 °F 87% 30.02 in 10.0 mi Calm Calm - N/A   Clear
8:35 AM 46.4 °F 41.0 °F 81% 30.02 in 10.0 mi Calm Calm - N/A   Clear
8:50 AM 50.0 °F 41.0 °F 71% 30.03 in 10.0 mi Calm Calm - N/A   Clear
4:35 PM 77.0 °F 42.8 °F 29% 29.92 in 10.0 mi SE 9.2 mph - N/A   Clear
4:50 PM 77.0 °F 42.8 °F 29% 29.92 in 10.0 mi South 8.1 mph - N/A   Clear
5:10 PM 75.2 °F 41.0 °F 29% 29.92 in 10.0 mi SSE 8.1 mph - N/A   Clear
5:30 PM 73.4 °F 41.0 °F 31% 29.92 in 10.0 mi SSE 6.9 mph - N/A   Clear
5:50 PM 73.4 °F 42.8 °F 33% 29.92 in 10.0 mi SE 5.8 mph - N/A   Clear
6:10 PM 71.6 °F 44.6 °F 38% 29.92 in 10.0 mi SE 4.6 mph - N/A   Clear
6:30 PM 69.8 °F 44.6 °F 40% 29.92 in 10.0 mi SE 4.6 mph - N/A   Clear
6:50 PM 68.0 °F 44.6 °F 43% 29.93 in 10.0 mi SE 3.5 mph - N/A   Clear
7:10 PM 64.4 °F 44.6 °F 49% 29.94 in 10.0 mi Calm Calm - N/A   Clear
7:30 PM 62.6 °F 46.4 °F 55% 29.95 in 10.0 mi Calm Calm - N/A   Clear
7:50 PM 60.8 °F 46.4 °F 59% 29.96 in 10.0 mi Calm Calm - N/A   Clear
8:10 PM 59.0 °F 48.2 °F 67% 29.97 in 10.0 mi Calm Calm - N/A   Clear
8:30 PM 57.2 °F 48.2 °F 72% 29.97 in 10.0 mi Calm Calm - N/A   Clear
8:50 PM 59.0 °F 46.4 °F 63% 29.98 in 10.0 mi Calm Calm - N/A   Clear
9:10 PM 59.0 °F 46.4 °F 63% 29.98 in 10.0 mi Calm Calm - N/A   Clear
9:30 PM 59.0 °F 46.4 °F 63% 29.98 in 10.0 mi Calm Calm - N/A   Clear
9:50 PM 59.0 °F 46.4 °F 63% 29.99 in 10.0 mi Calm Calm - N/A   Clear
10:10 PM 59.0 °F 46.4 °F 63% 29.99 in 10.0 mi SE 3.5 mph - N/A   Clear
10:30 PM 59.0 °F 46.4 °F 63% 29.99 in 10.0 mi SE 3.5 mph - N/A   Clear
10:50 PM 59.0 °F 46.4 °F 63% 29.99 in 10.0 mi SSE 3.5 mph - N/A   Clear
11:10 PM 59.0 °F 46.4 °F 63% 29.99 in 10.0 mi SE 3.5 mph - N/A   Clear
11:30 PM 59.0 °F 44.6 °F 59% 29.99 in 10.0 mi SE 4.6 mph - N/A   Clear
11:50 PM 59.0 °F 44.6 °F 59% 29.98 in 10.0 mi ESE 3.5 mph - N/A   Clear